FENGYUN 1C DEB, 29957

Orbit data source: Space-Track

FENGYUN 1C DEB, 29957 is space debris in SSO originally from a launch on Mon, 10 May 1999 UTC launched from the Taiyaun Space Center, China (TSC). Fengyun 1C debris stems from the Chinese weather satellite Fengyun-1C, which was intentionally destroyed by a Chinese anti-satellite missile in 2007. This event dramatically increased the amount of space debris, with thousands of trackable fragments posing hazards to satellites and human spaceflight. The Fengyun 1C debris cloud has become a focal point in discussions about space sustainability and the need for international regulations to prevent the creation of new debris.

Loading next visibility...
Identifier
29957, 1999-025KF
Orbit
SSO
Country
Flag of CNCN / PRC
Related business
Manufacturer
Unknown
Mission
Spacecraft
Bus & Motor
Unknown
Mass
Unknown
Launch date (UTC)
1999-05-10 (27 years ago)
Launch vehicle
Unknown
Launch site
Taiyaun Space Center, China (TSC)
Object type
Payload
Rocket body
Debris
Shape & HBR
Sphere, Unknown HBR
Radar Cross Section
0.031 m², Medium (>0.1 m² and < 1m²)

Expand to show TLE details & history
Last TLE update: 16 hours ago

TLE from 16 hours ago
0 FENGYUN 1C DEB
1 29957U 99025KF  26207.91323450  .00015852  00000-0  33876-2 0  9991
2 29957  98.9190 355.0877 0033850 206.3589 282.5721 14.58538671  7526
Epoch: 2026-07-26T21:55Z
TLE epoch observation values (Epoch: 2026-07-26T21:55:03.460Z)
Latitude
50.68902°
Longitude
-87.29137°
Altitude
700.856 km
Speed
7.513 km/s
True Right ascension
12h 24m 18s
True Declination
50° 31' 08"
Sunlit
Object was in daylight at epoch
Visualization orbit readout
Latitude
Unknown
Longitude
Unknown
Altitude
Unknown
Speed
Unknown
Apparent Right ascension
Unknown
Apparent Declination
Unknown
Sunlit
N/A
Visualization observer readout
Local Sidereal Time
03:40:07
Azimuth
Unknown
Elevation
Unknown
Doppler factor
Unknown
Orbital elements
Apogee altitude
718.957 km
Perigee altitude
671.071 km
Semi-major axis
7,073.151 km
Eccentricity
0.00339
Inclination
98.919°
RAAN
355.0877°
Arg. of periapsis
206.3589°
True anomaly
282.19316°
Mean anomaly
282.5721°
Eccentric anomaly
282.38267°
Mean motion
3.64858 °/min
Orbital period
98.67 mins
BSTAR
0.0033876
Loading maneuver chart data...
Computing Atmospheric mass density...
Loading historical data...
Loading historical data...
Loading historical data...
Loading historical data...
Loading historical data...
Loading historical data...
Loading historical data...

Documentation

Showing up to 5 results
|